Location: Ciserano
(45.5833°N, 9.6000°E)
Time: 11:59:42
(UTC+00:00)

H-2A R/B - Pass Details

Date: 29 November 2020
Orbit: 499 x 540 km, 97.3° (Epoch: 22 January)

Event Time Altitude Azimuth Distance (km) Brightness Sun altitude
Rises 04:34:57 0° 19° (NNE) 2,710 6.5 -21.2°
Reaches altitude 10° 04:37:11 10° 27° (NNE) 1,810 5.6 -20.8°
Maximum altitude 04:40:53 40° 98° (E) 805 4.2 -20.2°
Drops below altitude 10° 04:44:31 10° 168° (SSE) 1,779 5.7 -19.5°
Sets 04:46:42 0° 176° (S) 2,658 6.5 -19.2°
